Regional Weather Roundup
Issued by NWS Tiyan, Guam

Home | Current Version | Previous Version | Text Only | Print | Product List | Glossary On
Versions: 1 2 3 4 5 6 7 8 9 10 11 12 13 14 15 16 17 18 19 20 21 22 23 24 25 26 27 28
000
ASGM40 PGUM 180112
RWRGUM
WEATHER ROUNDUP FOR THE MARIANAS
NATIONAL WEATHER SERVICE TIYAN GU
1100 AM GSST FRI APR 18 2014

GUZ001>004-180200-
MARIANA ISLANDS-

CITY           SKY/WX    TMP DP  RH WIND       PRES   REMARKS
GUAM AIRPORT   MOSUNNY   88  75  66 E13G21    29.82F HX  97
ANDERSEN AFB   LGT RAIN  84  77  79 NE13      29.83F HX  94
ROTA AIRPORT   PTSUNNY   82  77  83 E14       29.84S HX  91
TINIAN AP      PTSUNNY   84  75  74 NE15      29.81F HX  92
SAIPAN AP      MOSUNNY   84  77  79 E13       29.82F HX  94

$$




USA.gov is the U.S. government's official web portal to all federal, state and local government web resources and services.